THOR ABLESTAR DEB, 643

Orbit data source: Space-Track

THOR ABLESTAR DEB, 643 is space debris in LEO originally from a launch on Thu, 29 Jun 1961 UTC launched from the Air Force Eastern Test Range (AFETR). Debris objects in space refer to the collection of defunct objects orbiting the Earth. Examples of debris include non-operational satellites, rocket bodies, and fragments generated from explosions, collisions, or faulty payload assembly.

Loading next visibility...
Identifier
643, 1961-015GU
Orbit
LEO
Country
Flag of USUS
Related business
Manufacturer
Unknown
Mission
Spacecraft
Bus & Motor
Unknown
Mass
Unknown
Launch date (UTC)
1961-06-29 (64 years ago)
Launch vehicle
Unknown
Launch site
Air Force Eastern Test Range (AFETR)
Object type
Payload
Rocket body
Debris
Shape & HBR
Unknown shape, 0.1 m
Radar Cross Section
Small (<0.1 m²)

Expand to show TLE details & history
Last TLE update: 7 hours ago

TLE from 7 hours ago
0 THOR ABLESTAR DEB
1 00643U 61015GU  25352.59825477  .00000720  00000-0  11319-2 0  9996
2 00643  66.3693 107.0290 0324867 140.3330 222.1975 13.36385699 85869
Epoch: 2025-12-18T14:21Z
TLE epoch observation values (Epoch: 2025-12-18T14:21:29.212Z)
Latitude
-0.00006°
Longitude
164.20579°
Altitude
1,308.761 km
Speed
7.114 km/s
True Right ascension
07h 08m 06s
True Declination
0° 00' 00"
Sunlit
Object was in full shadow at epoch
Visualization orbit readout
Latitude
Unknown
Longitude
Unknown
Altitude
Unknown
Speed
Unknown
Apparent Right ascension
Unknown
Apparent Declination
Unknown
Sunlit
N/A
Visualization observer readout
Local Sidereal Time
20:41:43
Azimuth
Unknown
Elevation
Unknown
Doppler factor
Unknown
Orbital elements
Apogee altitude
1,364.885 km
Perigee altitude
877.624 km
Semi-major axis
7,499.392 km
Eccentricity
0.03249
Inclination
66.3693°
RAAN
107.029°
Arg. of periapsis
140.333°
True anomaly
219.77084°
Mean anomaly
222.1975°
Eccentric anomaly
220.97691°
Mean motion
3.34198 °/min
Orbital period
107.72 mins
BSTAR
0.0011319
Loading maneuver chart data...
Computing Atmospheric mass density...

Documentation

Showing up to 5 results
|